Date String (YYYY-MM-DD hh:mm:ss) UTC,Instrument flags,Ambient pressure (hPa),Sample flow (lpm),Bypass flow (lpm),Sample temperature (°C),Ambient temperature (°C),ASC tube jacket temperature (°C),LED temperature (°C),Box temperature (°C),Sample RH (%),Span deviation,Mass concentration (μg/m³),Mass concentration (μg/m³),Mass concentration (μg/m³)
DateTimeUTC,F1_M11,P_M11,Q1_M11,Q2_M11,T1_M11,T2_M11,T3_M11,T4_M11,T5_M11,U1_M11,ZSPAN_M11,X0_M11,X2_M11,X1_M11
2022-04-23 21:00:00,,0816.5,5.00,0.00,23.0,22.0,00.0,31.9,24.8,08.6,0000.0,0001.53,0000.44,0000.26
2022-04-23 21:01:00,,0816.5,4.99,0.00,23.0,22.0,00.0,31.9,24.8,08.9,0000.0,0001.58,0000.45,0000.25
2022-04-23 21:02:00,,0816.6,5.00,0.00,23.0,22.0,00.0,31.9,24.8,09.0,0000.0,0001.64,0000.46,0000.25
2022-04-23 21:03:00,,0816.6,5.01,0.00,23.0,22.1,00.0,31.9,24.8,09.0,0000.0,0001.65,0000.44,0000.24
2022-04-23 21:04:00,,0816.7,4.99,0.00,23.0,22.1,00.0,31.9,24.9,08.8,0000.0,0001.79,0000.43,0000.25
2022-04-23 21:05:00,,0816.6,5.00,0.00,23.0,22.2,00.0,32.0,24.9,08.8,0000.0,0002.51,0000.38,0000.25
2022-04-23 21:06:00,,0816.6,5.01,0.00,23.1,22.1,00.0,32.0,24.8,08.7,0000.0,0002.48,0000.37,0000.25
2022-04-23 21:07:00,,0816.6,5.00,0.00,23.1,22.1,00.0,32.0,24.9,08.9,0000.0,0002.45,0000.37,0000.25
2022-04-23 21:08:00,,0816.6,5.00,0.00,23.1,22.1,00.0,32.0,24.9,09.0,0000.0,0002.33,0000.38,0000.26
2022-04-23 21:09:00,,0816.5,5.01,0.00,23.1,22.1,00.0,32.0,24.9,08.6,0000.0,0002.57,0000.40,0000.26
2022-04-23 21:10:00,,0816.6,5.01,0.00,23.1,22.1,00.0,32.0,24.9,08.7,0000.0,0002.17,0000.40,0000.26
2022-04-23 21:11:00,,0816.6,5.00,0.00,23.1,22.2,00.0,32.0,24.8,08.7,0000.0,0002.16,0000.39,0000.27
2022-04-23 21:12:00,,0816.6,5.00,0.00,23.1,22.2,00.0,32.0,24.8,08.9,0000.0,0002.12,0000.38,0000.27
2022-04-23 21:13:00,,0816.4,5.01,0.00,23.1,22.2,00.0,32.0,24.9,09.0,0000.0,0002.11,0000.38,0000.27
2022-04-23 21:14:00,,0816.5,5.01,0.00,23.1,22.2,00.0,32.0,24.9,09.0,0000.0,0002.03,0000.37,0000.28
2022-04-23 21:15:00,,0816.5,5.00,0.00,23.1,22.2,00.0,32.0,24.9,09.0,0000.0,0002.02,0000.38,0000.28
2022-04-23 21:16:00,,0816.6,4.99,0.00,23.1,22.2,00.0,32.0,24.9,08.9,0000.0,0001.17,0000.41,0000.28
2022-04-23 21:17:00,,0816.6,5.01,0.00,23.1,22.2,00.0,32.0,24.9,08.8,0000.0,0001.06,0000.41,0000.27
2022-04-23 21:18:00,,0816.6,5.01,0.00,23.0,22.2,00.0,32.0,24.9,08.9,0000.0,0001.10,0000.42,0000.27
2022-04-23 21:19:00,,0816.5,5.00,0.00,23.0,22.2,00.0,32.0,24.9,09.0,0000.0,0001.17,0000.43,0000.27
2022-04-23 21:20:00,,0816.6,5.00,0.00,23.0,22.2,00.0,32.0,24.9,09.0,0000.0,0001.06,0000.44,0000.27
2022-04-23 21:21:00,,0816.5,5.00,0.00,23.0,22.2,00.0,32.0,24.9,09.0,0000.0,0000.89,0000.44,0000.28
2022-04-23 21:22:00,,0816.6,5.01,0.00,23.1,22.2,00.0,32.0,24.9,09.1,0000.0,0000.89,0000.44,0000.28
2022-04-23 21:23:00,,0816.6,5.00,0.00,23.1,22.2,00.0,32.0,24.9,09.2,0000.0,0000.93,0000.45,0000.28
2022-04-23 21:24:00,,0816.6,5.00,0.00,23.1,22.2,00.0,32.0,24.9,09.1,0000.0,0000.97,0000.47,0000.28
2022-04-23 21:25:00,,0816.7,5.00,0.00,23.1,22.2,00.0,32.0,24.9,09.1,0000.0,0000.96,0000.47,0000.29
2022-04-23 21:26:00,,0816.5,4.99,0.00,23.1,22.2,00.0,32.0,24.9,09.3,0000.0,0001.57,0000.49,0000.29
2022-04-23 21:27:00,,0816.6,4.99,0.00,23.1,22.2,00.0,32.0,24.9,09.2,0000.0,0002.13,0000.48,0000.29
2022-04-23 21:28:00,,0816.6,5.00,0.00,23.1,22.2,00.0,32.0,24.9,09.2,0000.0,0002.13,0000.48,0000.30
2022-04-23 21:29:00,,0816.6,5.01,0.00,23.1,22.2,00.0,32.0,24.8,09.3,0000.0,0002.12,0000.49,0000.30
2022-04-23 21:30:00,,0816.5,5.01,0.00,23.1,22.2,00.0,32.1,24.9,09.5,0000.0,0002.07,0000.49,0000.30
2022-04-23 21:31:00,,0816.5,5.00,0.00,23.1,22.2,00.0,32.1,24.9,09.6,0000.0,0001.94,0000.47,0000.31
2022-04-23 21:32:00,,0816.6,5.01,0.00,23.1,22.2,00.0,32.1,24.9,09.4,0000.0,0002.00,0000.50,0000.31
2022-04-23 21:33:00,,0816.7,4.99,0.00,23.1,22.2,00.0,32.1,24.9,09.3,0000.0,0002.05,0000.53,0000.33
2022-04-23 21:34:00,,0816.7,5.01,0.00,23.1,22.2,00.0,32.1,24.9,09.6,0000.0,0002.05,0000.53,0000.33
2022-04-23 21:35:00,,0816.6,4.99,0.00,23.1,22.2,00.0,32.1,24.9,09.5,0000.0,0002.02,0000.52,0000.33
2022-04-23 21:36:00,,0816.5,4.99,0.00,23.2,22.2,00.0,32.1,25.0,09.4,0000.0,0002.68,0000.51,0000.33
2022-04-23 21:37:00,,0816.5,4.99,0.00,23.1,22.2,00.0,32.1,25.0,09.4,0000.0,0002.94,0000.49,0000.33
2022-04-23 21:38:00,,0816.5,5.01,0.00,23.1,22.3,00.0,32.1,25.0,09.4,0000.0,0002.43,0000.50,0000.33
2022-04-23 21:39:00,,0816.6,4.99,0.00,23.1,22.3,00.0,32.1,25.0,09.6,0000.0,0002.55,0000.53,0000.33
2022-04-23 21:40:00,,0816.6,4.99,0.00,23.1,22.3,00.0,32.1,25.0,09.7,0000.0,0002.60,0000.54,0000.34
2022-04-23 21:41:00,,0816.7,5.01,0.00,23.1,22.3,00.0,32.1,24.9,09.5,0000.0,0002.83,0000.54,0000.34
2022-04-23 21:42:00,,0816.5,5.01,0.00,23.1,22.3,00.0,32.1,24.9,09.6,0000.0,0002.82,0000.53,0000.35
2022-04-23 21:43:00,,0816.6,5.00,0.00,23.1,22.3,00.0,32.1,25.0,09.6,0000.0,0002.79,0000.52,0000.35
2022-04-23 21:44:00,,0816.6,5.00,0.00,23.1,22.3,00.0,32.1,25.0,09.7,0000.0,0002.78,0000.50,0000.34
2022-04-23 21:45:00,,0816.6,5.00,0.00,23.1,22.3,00.0,32.1,25.0,09.8,0000.0,0002.75,0000.50,0000.35
2022-04-23 21:46:00,,0816.5,5.01,0.00,23.1,22.3,00.0,32.1,25.0,09.6,0000.0,0002.69,0000.49,0000.35
2022-04-23 21:47:00,,0816.6,4.98,0.00,23.1,22.4,00.0,32.1,25.0,09.5,0000.0,0002.38,0000.51,0000.36
2022-04-23 21:48:00,,0816.7,5.00,0.00,23.1,22.4,00.0,32.1,25.0,09.5,0000.0,0001.25,0000.52,0000.36
2022-04-23 21:49:00,,0816.6,5.00,0.00,23.1,22.4,00.0,32.1,25.0,09.5,0000.0,0001.26,0000.53,0000.36
2022-04-23 21:50:00,,0816.5,5.01,0.00,23.1,22.3,00.0,32.1,25.0,09.4,0000.0,0001.29,0000.54,0000.36
2022-04-23 21:51:00,,0816.6,5.00,0.00,23.1,22.3,00.0,32.1,25.0,09.4,0000.0,0001.23,0000.53,0000.36
2022-04-23 21:52:00,,0816.6,4.99,0.00,23.1,22.4,00.0,32.1,25.0,09.5,0000.0,0001.03,0000.52,0000.35
2022-04-23 21:53:00,,0816.5,4.99,0.00,23.1,22.4,00.0,32.1,25.0,09.3,0000.0,0000.96,0000.50,0000.34
2022-04-23 21:54:00,,0816.5,5.01,0.00,23.1,22.4,00.0,32.1,25.0,09.3,0000.0,0000.97,0000.51,0000.34
2022-04-23 21:55:00,,0816.6,5.00,0.00,23.2,22.4,00.0,32.2,25.0,09.1,0000.0,0000.93,0000.49,0000.34
2022-04-23 21:56:00,,0816.6,5.00,0.00,23.2,22.4,00.0,32.2,25.0,09.3,0000.0,0000.96,0000.50,0000.33
2022-04-23 21:57:00,,0816.7,4.99,0.00,23.2,22.4,00.0,32.2,25.0,09.5,0000.0,0001.31,0000.52,0000.33
2022-04-23 21:58:00,,0816.6,5.01,0.00,23.2,22.4,00.0,32.2,25.0,09.5,0000.0,0001.41,0000.52,0000.33
2022-04-23 21:59:00,,0816.6,5.00,0.00,23.2,22.4,00.0,32.2,25.0,09.4,0000.0,0001.38,0000.51,0000.33
